Location: Wildlife_Club
(35.6000°N, 81.4330°W)
Time: 13:55:44
(UTC-04:00)

A-11 Canister half - Pass Details

Date: 02 July 2019
Orbit: 1515 x 1685 km, 47.2° (Epoch: 15 July)

Event Time Altitude Azimuth Distance (km) Brightness Sun altitude
Rises 15:50:26 0° 303° (WNW) 4,838 11.9 57.1°
Reaches altitude 10° 15:53:37 10° 301° (WNW) 3,827 11.6 56.5°
Maximum altitude 16:03:12 69° 221° (SW) 1,656 10.8 54.5°
Drops below altitude 10° 16:12:26 10° 140° (SE) 3,692 10.9 52.7°
Sets 16:15:27 0° 138° (SE) 4,660 11.3 52.1°
